This is the latest recevied weather packets stored in our database for station/object YO8CLN-10. If no packets are shown the sender has not sent any weather packets the latest 10 day(s).
| Time | Temp. | Humidity | Pressure | Rain* | Wind** | Luminosity | Snow |
|---|---|---|---|---|---|---|---|
| 1777871302 | 6.11° C | 78% | 1111 hPa | 0 mm | - | - | - |
| 1777870702 | 5.56° C | 81% | 1111 hPa | 0 mm | - | - | - |
| 1777870101 | 4.44° C | 82% | 1111 hPa | 0 mm | - | - | - |
| 1777869502 | 3.33° C | 84% | 1111 hPa | 0 mm | - | - | - |
| 1777868900 | 2.78° C | 84% | 1111 hPa | 0 mm | - | - | - |
| 1777868663 | 2.22° C | 85% | 1111 hPa | 0 mm | - | - | - |
| 1777868302 | 1.67° C | 85% | 1111 hPa | 0 mm | - | - | - |
| 1777867699 | 0° C | 85% | 1111 hPa | 0 mm | - | - | - |
| 1777867520 | -0.56° C | 84% | 1111 hPa | 0 mm | - | - | - |
| 1777867098 | -1.67° C | 81% | 1111 hPa | 0 mm | - | - | - |
| 1777866498 | -2.22° C | 79% | 1111 hPa | 0 mm | - | - | - |
| 1777866381 | -2.22° C | 79% | 1111 hPa | 0 mm | - | - | - |
| 1777865897 | -2.22° C | 79% | 1111 hPa | 0 mm | - | - | - |
| 1777865297 | -2.22° C | 79% | 1111 hPa | 0 mm | - | - | - |
| 1777864696 | -2.22° C | 79% | 1111 hPa | 0 mm | - | - | - |
| 1777864096 | -2.22° C | 79% | 1111 hPa | 0 mm | - | - | - |
| 1777863497 | -2.22° C | 79% | 1111 hPa | 0 mm | - | - | - |
| 1777862894 | -2.22° C | 78% | 1111 hPa | 0 mm | - | - | - |
| 1777862294 | -2.22° C | 78% | 1111 hPa | 0 mm | - | - | - |
| 1777861693 | -1.67° C | 78% | 1111 hPa | 0 mm | - | - | - |
| 1777861093 | -1.67° C | 78% | 1111 hPa | 0 mm | - | - | - |
| 1777860492 | -1.67° C | 78% | 1111 hPa | 0 mm | - | - | - |
| 1777859892 | -1.67° C | 77% | 1111 hPa | 0 mm | - | - | - |
| 1777859291 | -1.67° C | 77% | 1111 hPa | 0 mm | - | - | - |
| 1777858690 | -1.67° C | 77% | 1111 hPa | 0 mm | - | - | - |
* Rain latest hour (hover to see other rain measurements)
** Current wind speed in m/s (hover to see current wind gust speed)